SCP
-0 -0 -0 -0 -0 -0 -0 -0 0 -0 -0 -0 -0 -0 -0 0 -0 -0 -0 0 0 0 0 0 0 0 0 0 0 0 0 0 0 0 0 -0 -0 -0 -0 0 0 0 0
-0 -0 -0 -0 -0 -0 -0 -0 -0 -0 -0 -0 -0 -0 -0 -0 -0 -0 -0 -0 0 0 0 0 0 0 0 0 0 0 0 0 0 0 -0 0 0 -0 -0 0 0 0 0
0 -0 -0 -0 -0 -0 -0 -0 -0 -0 -0 -0 -0 -0 -0 -0 -0 -0 0 0 0 0 0 0 0 0 0 0 0 0 0 0 0 0 0 0 0 0 -0 0 0 0 0
0 0 -0 -0 -0 -0 -0 -0 -0 -0 -0 -0 -0 -0 -0 -0 -0 -0 -0 -0 0 0 0 0 0 0 0 0 0 0 0 0 0 0 0 0 0 0 0 0 0 0 0
0 0 -0 -0 -0 -0 -0 -0 -0 -0 -0 -0 -0 -0 -0 -0 -0 -0 -0 -0 -0 0 0 0 0 0 0 0 0 0 0 0 0 0 0 0 0 0 0 0 0 0 0
0 0 0 -0 -0 -0 -0 -0 -0 -0 -0 -0 -0 -0 -0 -0 -0 -0 -0 -0 -0 0 0 0 0 0 0 0 0 0 0 0 0 0 0 0 0 0 0 0 0 0 0
0 0 0 0 0 -0 -0 -0 -0 -0 -0 -0 -0 -0 0 0 0 0 0 0 0 0 0 0 0 0 0 0 0 0 0 0 0 0 0 0 0 0 0 0 0 0 0
0 0 0 0 0 0 0 0 0 0 0 0 0 0 0 0 0 0 0 0 0 0 0 0 0 0 0 0 0 0 0 0 0 0 0 0 0 0 0 0 0 0 1
0 0 0 0 0 0 0 0 0 0 0 0 0 0 0 0 0 0 0 0 0 0 0 0 0 0 0 0 0 0 0 0 0 0 0 0 0 0 0 0 0 0 0
0 0 0 0 0 0 0 0 0 0 0 0 0 0 0 0 0 0 0 0 0 0 0 0 0 0 0 0 0 0 0 0 0 0 0 0 0 0 0 0 0 0 0
0 0 0 0 0 0 0 0 0 0 0 0 0 0 0 0 0 0 0 0 0 0 0 0 0 0 0 0 0 0 0 0 0 0 0 0 0 0 0 1 0 0 0
0 0 0 0 0 0 0 0 0 0 0 0 0 0 0 0 0 0 0 0 0 0 0 0 0 0 0 0 0 0 0 0 0 0 0 0 0 0 0 1 1 0 0
0 0 0 0 0 0 0 0 0 0 0 0 0 0 0 0 0 0 0 0 0 0 0 0 0 0 0 0 0 0 0 0 0 0 0 0 0 0 0 0 1 0 1
0 0 0 0 0 0 0 0 0 0 0 0 0 0 0 0 0 0 0 0 0 0 0 0 0 0 0 0 0 0 0 0 0 0 0 0 0 0 0 0 1 1 0
0 0 0 0 0 0 0 0 0 0 0 0 0 0 0 0 0 0 0 0 0 0 0 0 0 0 0 0 0 0 0 0 0 0 0 0 0 0 0 0 0 1 1
0 0 0 0 0 0 0 0 0 0 0 0 0 0 0 0 0 0 0 0 -0 -0 0 0 0 0 0 0 0 0 0 0 0 0 0 0 0 0 0 0 0 0 1
0 0 0 0 0 0 0 0 0 0 0 0 0 0 0 0 0 0 0 0 -0 -0 -0 -0 0 0 0 0 0 0 0 0 0 0 0 0 0 0 0 0 0 0 0
0 0 0 0 0 0 0 0 0 0 0 0 0 0 0 0 0 0 0 0 0 -0 -0 -0 -0 -0 -0 -0 -0 0 0 0 0 0 0 0 0 0 0 0 0 0 0
0 0 0 0 0 0 0 0 0 0 0 0 0 0 0 0 0 0 0 0 0 -0 -0 -0 -0 -0 -0 -0 -0 -0 -0 0 0 0 0 0 0 0 0 0 0 0 0
0 0 0 0 0 0 0 0 0 0 0 0 0 0 0 0 0 0 0 0 0 0 -0 -0 -0 -0 -0 -0 -0 -0 -0 -0 0 0 0 0 0 0 0 0 0 0 0
0 0 0 0 0 0 0 0 0 0 0 0 0 0 0 0 0 0 0 0 0 0 0 0 0 -0 -0 -0 -0 -0 -0 0 -0 -0 0 0 0 0 0 0 0 0 0
0 0 0 0 0 0 0 0 0 0 0 0 0 0 0 -0 0 0 0 0 0 0 0 0 0 -0 -0 -0 -0 0 -0 -0 -0 -0 -0 -0 -0 0 0 0 0 0 0
0 0 0 0 0 0 0 0 0 0 0 0 0 0 0 0 0 0 0 0 0 0 0 0 0 0 0 0 0 0 0 0 0 -0 -0 0 0 0 0 0 0 0 0
0 0 0 0 0 0 0 0 0 0 0 0 0 0 0 0 0 0 0 0 0 0 0 0 0 0 0 0 0 0 0 0 0 -0 -0 -0 0 0 0 0 0 0 0
0 0 0 0 0 0 0 0 0 0 0 0 0 0 0 0 0 0 0 0 0 0 0 0 0 0 0 0 0 0 0 0 0 0 0 -0 -0 0 0 0 0 0 0
0 0 0 0 0 0 0 0 0 0 0 0 0 0 0 0 0 0 0 0 0 0 0 0 0 0 0 0 0 0 0 0 0 0 0 0 0 0 0 0 0 0 0
Wind_Speed_500mb
6 10 14 8 2 1 4 7 7 5 4 5 6 8 11 12 12 11 12 12 15 20 23 22 22 25 25 24 21 19 21 23 23 25 25 21 20 23 22 21 20 23 22
13 12 8 7 6 5 10 10 6 5 5 6 8 10 12 13 14 17 17 19 20 20 19 22 24 22 25 26 28 26 24 24 27 27 29 27 28 25 25 22 24 24 26
8 13 11 7 8 11 14 10 13 14 13 13 12 11 14 13 14 17 20 23 23 24 24 25 24 26 25 26 27 29 30 29 28 29 32 36 35 29 26 23 24 26 30
5 7 6 8 9 10 15 16 17 20 21 21 20 23 22 21 22 21 23 22 25 26 27 26 28 27 28 27 30 29 30 32 32 31 33 37 36 31 30 29 25 29 32
6 6 9 8 5 8 12 14 19 22 24 25 27 29 29 28 26 26 28 28 28 28 29 29 32 32 30 31 29 33 30 32 34 34 34 37 41 38 36 32 29 31 34
3 2 4 3 4 5 4 5 10 15 19 23 28 33 37 39 38 39 38 37 36 35 34 32 32 33 32 35 32 32 35 34 34 36 39 39 41 44 39 37 35 33 36
6 6 3 2 3 5 6 8 8 10 13 16 18 23 27 34 40 45 46 46 46 44 44 43 40 40 38 39 38 36 36 37 41 41 40 43 44 45 45 43 41 40 39
13 9 7 6 4 5 8 11 14 17 20 23 26 29 30 36 38 40 43 47 51 52 51 47 48 47 47 47 44 42 41 41 42 46 45 42 47 46 49 49 48 45 45
19 15 11 7 6 6 8 9 11 14 16 19 23 26 29 34 40 44 44 45 49 52 52 53 54 53 52 53 53 52 49 47 46 50 51 50 45 48 50 55 55 54 54
23 19 14 10 7 5 5 7 9 12 15 18 21 25 28 31 35 37 40 45 47 49 51 56 58 59 58 58 57 58 60 58 56 53 56 57 50 48 53 57 61 61 60
25 21 16 13 10 5 2 4 8 12 15 18 20 23 25 28 31 34 36 40 43 45 45 50 54 60 62 64 64 63 63 64 64 63 62 61 56 52 52 58 63 65 66
29 25 20 16 11 5 4 6 11 16 20 22 25 28 32 36 39 41 42 42 41 43 45 45 49 52 57 66 68 70 70 69 69 70 71 68 62 59 54 58 63 70 72
34 30 26 20 14 10 7 6 9 13 18 21 25 28 31 34 39 43 44 44 44 45 46 47 47 51 56 59 64 70 72 75 75 75 77 75 72 66 62 57 64 70 76
40 34 28 20 17 14 11 7 9 12 16 19 24 27 31 34 37 43 47 49 50 48 48 51 54 54 53 55 60 66 71 77 76 78 83 83 79 77 72 68 63 71 75
43 38 31 25 22 18 12 10 9 11 15 20 25 31 36 41 44 47 51 54 55 54 53 49 52 57 60 60 58 60 66 71 82 83 85 85 87 86 83 79 75 71 78
48 42 35 29 23 17 13 9 10 13 18 25 31 36 41 45 46 49 53 56 57 58 58 59 61 60 61 66 69 67 66 68 71 85 90 93 94 95 93 90 86 82 79
49 42 34 26 20 17 13 13 14 17 20 25 29 35 40 43 46 52 56 59 62 63 63 64 65 68 69 66 69 75 77 74 75 74 85 102 99 101 102 101 97 92 87
50 42 36 31 25 20 18 16 15 17 20 25 29 34 40 45 48 51 55 60 62 64 67 69 70 74 78 82 86 81 78 81 81 83 80 86 103 107 107 105 107 103 96
52 46 41 36 29 24 22 19 17 18 20 24 30 35 42 47 51 54 57 61 64 67 70 73 74 77 82 85 90 94 95 93 87 85 91 88 90 106 111 112 112 111 106
59 54 48 41 33 30 25 22 19 17 19 24 30 36 41 44 49 55 60 62 65 69 72 73 77 78 82 86 91 98 99 101 101 101 98 93 96 96 111 112 109 112 114
65 61 52 44 36 32 27 24 20 18 21 26 32 37 40 43 49 57 63 64 65 70 72 75 78 81 84 84 91 100 107 109 100 90 94 99 94 98 99 116 113 113 117
73 63 57 47 40 34 31 27 24 23 26 30 34 36 41 44 52 60 65 66 67 72 72 73 75 84 88 82 72 72 62 93 74 43 49 65 74 76 93 102 121 119 119
80 71 60 50 43 38 34 30 28 27 30 34 36 38 41 47 54 60 61 65 67 71 74 75 75 76 84 86 74 53 35 38 76 89 69 63 67 67 67 76 90 114 121
86 71 61 54 49 43 37 33 31 31 35 38 43 46 47 51 54 61 65 67 69 72 74 76 79 82 84 92 76 67 63 74 48 80 65 62 61 91 78 76 80 93 112
86 77 67 59 53 46 39 35 33 32 38 42 47 52 53 56 60 64 68 72 73 75 76 77 80 84 88 92 88 76 66 69 83 82 100 82 78 92 107 104 93 91 80
88 80 73 64 56 49 41 36 34 35 40 47 50 55 59 65 69 68 71 74 73 74 78 82 84 88 90 96 90 93 86 72 78 66 80 85 85 90 93 109 109 104 87
Wind_Direction_500mb
4 356 356 351 4 150 258 247 224 241 246 235 256 280 294 302 302 301 298 298 300 305 309 309 307 307 299 291 289 286 286 271 267 269 263 262 261 265 267 265 257 250 231
345 343 318 290 284 198 225 228 216 215 255 278 297 301 298 294 299 298 297 298 303 305 301 305 310 311 307 300 292 286 276 270 263 263 264 265 263 259 267 263 254 247 234
332 328 312 286 254 247 240 229 218 215 223 229 241 256 250 260 273 283 291 287 290 295 298 298 302 302 305 304 295 290 284 275 265 258 259 256 254 259 264 257 256 241 238
293 284 299 319 273 256 252 247 242 245 249 256 257 257 262 265 259 257 264 274 279 283 286 288 290 293 295 298 299 288 286 281 274 263 260 259 259 256 260 259 251 241 232
257 285 305 300 288 283 282 263 253 259 263 268 272 278 283 280 277 275 270 269 270 273 281 286 288 284 287 288 289 290 285 283 280 269 260 259 258 255 257 255 251 243 231
202 321 300 346 5 341 335 296 287 282 281 284 285 282 280 280 281 278 277 276 272 270 269 269 276 282 281 282 280 279 280 277 279 277 261 257 257 256 253 251 247 243 233
169 183 177 83 13 335 330 329 327 318 316 309 303 299 295 287 284 283 283 281 279 278 277 277 271 269 269 270 274 276 274 276 275 273 272 258 255 256 252 248 240 239 237
215 221 229 236 256 280 297 309 318 320 321 323 318 310 305 299 296 294 287 280 276 275 275 275 274 273 268 269 269 267 268 269 273 270 269 267 255 255 252 248 241 236 238
212 218 221 227 250 290 308 315 322 322 322 318 318 315 308 302 297 296 295 293 289 283 279 274 272 271 272 272 270 268 262 262 266 267 268 267 262 253 253 248 243 237 237
212 214 212 213 225 251 304 321 337 349 351 352 347 342 337 327 320 309 301 293 289 288 286 277 274 270 269 269 270 269 267 262 260 262 264 266 264 258 251 251 247 240 238
213 217 216 213 213 209 253 333 0 6 6 3 359 356 349 341 334 325 317 309 303 295 286 282 279 274 271 268 268 268 268 266 263 259 260 261 263 262 254 251 248 245 236
213 216 220 230 235 232 272 338 355 0 0 0 357 353 351 347 342 337 331 323 319 314 309 299 287 281 276 273 269 266 266 265 265 262 259 258 257 260 259 251 249 246 241
216 218 223 224 226 237 266 321 344 350 354 351 349 346 344 343 340 337 334 330 325 320 315 310 305 299 289 281 276 270 268 265 264 263 259 257 257 255 258 254 251 248 245
217 219 224 228 240 249 258 289 331 344 339 339 339 339 338 339 338 337 336 334 332 331 327 322 315 311 305 297 290 283 275 272 270 268 263 257 256 255 254 255 249 250 248
217 223 227 231 236 240 250 275 303 321 331 335 338 339 339 339 340 339 336 334 333 334 332 329 323 318 313 308 302 294 283 273 268 272 272 268 259 254 254 253 251 247 247
221 224 225 228 231 235 249 271 300 322 335 339 337 335 335 335 336 336 334 331 330 330 330 330 329 324 319 314 308 303 296 289 275 264 265 271 270 261 254 252 251 248 246
224 226 229 233 238 250 271 292 311 321 330 330 328 329 328 330 332 333 330 327 326 326 327 326 324 322 318 315 311 307 302 294 287 280 266 259 266 269 261 255 251 248 247
224 227 231 236 240 250 263 275 290 306 320 323 326 326 327 328 329 328 325 322 321 321 322 323 323 321 320 318 315 309 302 298 292 286 279 267 257 259 266 260 254 249 246
226 230 233 236 240 245 250 260 278 296 310 320 324 324 325 324 324 324 322 319 318 320 321 322 322 320 319 317 313 310 307 302 295 288 282 275 266 256 256 263 259 251 246
224 227 231 235 238 242 246 253 266 287 306 317 320 321 319 319 321 321 317 318 319 319 319 319 318 317 316 315 311 304 303 300 297 294 288 279 272 262 253 254 257 256 248
224 226 229 232 236 240 243 250 264 284 301 312 321 318 318 318 320 316 314 314 314 314 315 316 316 316 315 317 313 311 305 302 298 295 291 290 278 269 260 255 253 255 254
227 226 226 230 235 238 241 249 261 280 296 314 317 314 314 318 316 310 310 311 313 312 314 314 314 313 313 316 312 307 310 303 308 305 295 289 287 276 267 257 253 250 252
222 223 226 230 234 238 242 251 264 281 297 307 308 314 316 315 313 309 309 310 312 313 313 312 311 310 308 306 303 286 293 282 304 291 283 274 273 269 269 264 259 250 250
222 223 226 228 232 236 241 251 266 283 296 306 313 316 316 314 313 312 312 312 313 310 309 309 308 307 306 304 298 290 281 280 289 297 285 279 274 261 260 248 244 249 248
224 222 225 230 233 236 244 255 270 286 297 309 310 310 313 316 314 313 313 312 311 309 308 306 305 302 301 300 297 293 282 277 273 267 281 283 276 272 261 261 250 238 241
222 222 224 228 233 238 248 259 273 288 299 305 309 315 319 318 315 314 312 311 309 307 306 304 301 299 298 297 292 291 285 272 273 267 268 271 269 266 267 268 264 253 247
Wind_Speed_850mb
6 10 14 8 2 1 4 7 7 5 4 5 6 8 11 12 12 11 12 12 15 20 23 22 22 25 25 24 21 19 21 23 23 25 25 21 20 23 22 21 20 23 22
13 12 8 7 6 5 10 10 6 5 5 6 8 10 12 13 14 17 17 19 20 20 19 22 24 22 25 26 28 26 24 24 27 27 29 27 28 25 25 22 24 24 26
8 13 11 7 8 11 14 10 13 14 13 13 12 11 14 13 14 17 20 23 23 24 24 25 24 26 25 26 27 29 30 29 28 29 32 36 35 29 26 23 24 26 30
5 7 6 8 9 10 15 16 17 20 21 21 20 23 22 21 22 21 23 22 25 26 27 26 28 27 28 27 30 29 30 32 32 31 33 37 36 31 30 29 25 29 32
6 6 9 8 5 8 12 14 19 22 24 25 27 29 29 28 26 26 28 28 28 28 29 29 32 32 30 31 29 33 30 32 34 34 34 37 41 38 36 32 29 31 34
3 2 4 3 4 5 4 5 10 15 19 23 28 33 37 39 38 39 38 37 36 35 34 32 32 33 32 35 32 32 35 34 34 36 39 39 41 44 39 37 35 33 36
6 6 3 2 3 5 6 8 8 10 13 16 18 23 27 34 40 45 46 46 46 44 44 43 40 40 38 39 38 36 36 37 41 41 40 43 44 45 45 43 41 40 39
13 9 7 6 4 5 8 11 14 17 20 23 26 29 30 36 38 40 43 47 51 52 51 47 48 47 47 47 44 42 41 41 42 46 45 42 47 46 49 49 48 45 45
19 15 11 7 6 6 8 9 11 14 16 19 23 26 29 34 40 44 44 45 49 52 52 53 54 53 52 53 53 52 49 47 46 50 51 50 45 48 50 55 55 54 54
23 19 14 10 7 5 5 7 9 12 15 18 21 25 28 31 35 37 40 45 47 49 51 56 58 59 58 58 57 58 60 58 56 53 56 57 50 48 53 57 61 61 60
25 21 16 13 10 5 2 4 8 12 15 18 20 23 25 28 31 34 36 40 43 45 45 50 54 60 62 64 64 63 63 64 64 63 62 61 56 52 52 58 63 65 66
29 25 20 16 11 5 4 6 11 16 20 22 25 28 32 36 39 41 42 42 41 43 45 45 49 52 57 66 68 70 70 69 69 70 71 68 62 59 54 58 63 70 72
34 30 26 20 14 10 7 6 9 13 18 21 25 28 31 34 39 43 44 44 44 45 46 47 47 51 56 59 64 70 72 75 75 75 77 75 72 66 62 57 64 70 76
40 34 28 20 17 14 11 7 9 12 16 19 24 27 31 34 37 43 47 49 50 48 48 51 54 54 53 55 60 66 71 77 76 78 83 83 79 77 72 68 63 71 75
43 38 31 25 22 18 12 10 9 11 15 20 25 31 36 41 44 47 51 54 55 54 53 49 52 57 60 60 58 60 66 71 82 83 85 85 87 86 83 79 75 71 78
48 42 35 29 23 17 13 9 10 13 18 25 31 36 41 45 46 49 53 56 57 58 58 59 61 60 61 66 69 67 66 68 71 85 90 93 94 95 93 90 86 82 79
49 42 34 26 20 17 13 13 14 17 20 25 29 35 40 43 46 52 56 59 62 63 63 64 65 68 69 66 69 75 77 74 75 74 85 102 99 101 102 101 97 92 87
50 42 36 31 25 20 18 16 15 17 20 25 29 34 40 45 48 51 55 60 62 64 67 69 70 74 78 82 86 81 78 81 81 83 80 86 103 107 107 105 107 103 96
52 46 41 36 29 24 22 19 17 18 20 24 30 35 42 47 51 54 57 61 64 67 70 73 74 77 82 85 90 94 95 93 87 85 91 88 90 106 111 112 112 111 106
59 54 48 41 33 30 25 22 19 17 19 24 30 36 41 44 49 55 60 62 65 69 72 73 77 78 82 86 91 98 99 101 101 101 98 93 96 96 111 112 109 112 114
65 61 52 44 36 32 27 24 20 18 21 26 32 37 40 43 49 57 63 64 65 70 72 75 78 81 84 84 91 100 107 109 100 90 94 99 94 98 99 116 113 113 117
73 63 57 47 40 34 31 27 24 23 26 30 34 36 41 44 52 60 65 66 67 72 72 73 75 84 88 82 72 72 62 93 74 43 49 65 74 76 93 102 121 119 119
80 71 60 50 43 38 34 30 28 27 30 34 36 38 41 47 54 60 61 65 67 71 74 75 75 76 84 86 74 53 35 38 76 89 69 63 67 67 67 76 90 114 121
86 71 61 54 49 43 37 33 31 31 35 38 43 46 47 51 54 61 65 67 69 72 74 76 79 82 84 92 76 67 63 74 48 80 65 62 61 91 78 76 80 93 112
86 77 67 59 53 46 39 35 33 32 38 42 47 52 53 56 60 64 68 72 73 75 76 77 80 84 88 92 88 76 66 69 83 82 100 82 78 92 107 104 93 91 80
88 80 73 64 56 49 41 36 34 35 40 47 50 55 59 65 69 68 71 74 73 74 78 82 84 88 90 96 90 93 86 72 78 66 80 85 85 90 93 109 109 104 87
Wind_Direction_850mb
4 356 356 351 4 150 258 247 224 241 246 235 256 280 294 302 302 301 298 298 300 305 309 309 307 307 299 291 289 286 286 271 267 269 263 262 261 265 267 265 257 250 231
345 343 318 290 284 198 225 228 216 215 255 278 297 301 298 294 299 298 297 298 303 305 301 305 310 311 307 300 292 286 276 270 263 263 264 265 263 259 267 263 254 247 234
332 328 312 286 254 247 240 229 218 215 223 229 241 256 250 260 273 283 291 287 290 295 298 298 302 302 305 304 295 290 284 275 265 258 259 256 254 259 264 257 256 241 238
293 284 299 319 273 256 252 247 242 245 249 256 257 257 262 265 259 257 264 274 279 283 286 288 290 293 295 298 299 288 286 281 274 263 260 259 259 256 260 259 251 241 232
257 285 305 300 288 283 282 263 253 259 263 268 272 278 283 280 277 275 270 269 270 273 281 286 288 284 287 288 289 290 285 283 280 269 260 259 258 255 257 255 251 243 231
202 321 300 346 5 341 335 296 287 282 281 284 285 282 280 280 281 278 277 276 272 270 269 269 276 282 281 282 280 279 280 277 279 277 261 257 257 256 253 251 247 243 233
169 183 177 83 13 335 330 329 327 318 316 309 303 299 295 287 284 283 283 281 279 278 277 277 271 269 269 270 274 276 274 276 275 273 272 258 255 256 252 248 240 239 237
215 221 229 236 256 280 297 309 318 320 321 323 318 310 305 299 296 294 287 280 276 275 275 275 274 273 268 269 269 267 268 269 273 270 269 267 255 255 252 248 241 236 238
212 218 221 227 250 290 308 315 322 322 322 318 318 315 308 302 297 296 295 293 289 283 279 274 272 271 272 272 270 268 262 262 266 267 268 267 262 253 253 248 243 237 237
212 214 212 213 225 251 304 321 337 349 351 352 347 342 337 327 320 309 301 293 289 288 286 277 274 270 269 269 270 269 267 262 260 262 264 266 264 258 251 251 247 240 238
213 217 216 213 213 209 253 333 0 6 6 3 359 356 349 341 334 325 317 309 303 295 286 282 279 274 271 268 268 268 268 266 263 259 260 261 263 262 254 251 248 245 236
213 216 220 230 235 232 272 338 355 0 0 0 357 353 351 347 342 337 331 323 319 314 309 299 287 281 276 273 269 266 266 265 265 262 259 258 257 260 259 251 249 246 241
216 218 223 224 226 237 266 321 344 350 354 351 349 346 344 343 340 337 334 330 325 320 315 310 305 299 289 281 276 270 268 265 264 263 259 257 257 255 258 254 251 248 245
217 219 224 228 240 249 258 289 331 344 339 339 339 339 338 339 338 337 336 334 332 331 327 322 315 311 305 297 290 283 275 272 270 268 263 257 256 255 254 255 249 250 248
217 223 227 231 236 240 250 275 303 321 331 335 338 339 339 339 340 339 336 334 333 334 332 329 323 318 313 308 302 294 283 273 268 272 272 268 259 254 254 253 251 247 247
221 224 225 228 231 235 249 271 300 322 335 339 337 335 335 335 336 336 334 331 330 330 330 330 329 324 319 314 308 303 296 289 275 264 265 271 270 261 254 252 251 248 246
224 226 229 233 238 250 271 292 311 321 330 330 328 329 328 330 332 333 330 327 326 326 327 326 324 322 318 315 311 307 302 294 287 280 266 259 266 269 261 255 251 248 247
224 227 231 236 240 250 263 275 290 306 320 323 326 326 327 328 329 328 325 322 321 321 322 323 323 321 320 318 315 309 302 298 292 286 279 267 257 259 266 260 254 249 246
226 230 233 236 240 245 250 260 278 296 310 320 324 324 325 324 324 324 322 319 318 320 321 322 322 320 319 317 313 310 307 302 295 288 282 275 266 256 256 263 259 251 246
224 227 231 235 238 242 246 253 266 287 306 317 320 321 319 319 321 321 317 318 319 319 319 319 318 317 316 315 311 304 303 300 297 294 288 279 272 262 253 254 257 256 248
224 226 229 232 236 240 243 250 264 284 301 312 321 318 318 318 320 316 314 314 314 314 315 316 316 316 315 317 313 311 305 302 298 295 291 290 278 269 260 255 253 255 254
227 226 226 230 235 238 241 249 261 280 296 314 317 314 314 318 316 310 310 311 313 312 314 314 314 313 313 316 312 307 310 303 308 305 295 289 287 276 267 257 253 250 252
222 223 226 230 234 238 242 251 264 281 297 307 308 314 316 315 313 309 309 310 312 313 313 312 311 310 308 306 303 286 293 282 304 291 283 274 273 269 269 264 259 250 250
222 223 226 228 232 236 241 251 266 283 296 306 313 316 316 314 313 312 312 312 313 310 309 309 308 307 306 304 298 290 281 280 289 297 285 279 274 261 260 248 244 249 248
224 222 225 230 233 236 244 255 270 286 297 309 310 310 313 316 314 313 313 312 311 309 308 306 305 302 301 300 297 293 282 277 273 267 281 283 276 272 261 261 250 238 241
222 222 224 228 233 238 248 259 273 288 299 305 309 315 319 318 315 314 312 311 309 307 306 304 301 299 298 297 292 291 285 272 273 267 268 271 269 266 267 268 264 253 247